Location: Newark
(21.1200°N, 73.4000°E)
Time: 00:04:23
(UTC+00:00)

Vanguard 1 Rocket - Pass Details

Date: 26 January 2021
Orbit: 654 x 4223 km, 34.3° (Epoch: 06 March)

Event Time Altitude Azimuth Distance (km) Brightness Sun altitude
Rises 00:19:13 0° 202° (SSW) 7,999 12.1 -20.1°
Reaches altitude 10° 00:28:37 10° 185° (S) 6,319 11.8 -17.9°
Maximum altitude 00:38:31 17° 153° (SSE) 4,814 11.6 -15.7°
Drops below altitude 10° 00:45:47 10° 119° (ESE) 4,501 12.2 -14.1°
Sets 00:50:26 0° 99° (E) 4,898 13.1 -13.0°
